Location: Arundel
(45.9679°N, 74.6164°W)
Time: 12:44:27
(UTC-04:00)

Tiangong 2 - Visible Passes

Search period start: 18 July 2018 00:00
Search period end: 28 July 2018 00:00
Orbit: 386 x 394 km, 42.8° (Epoch: 18 July)

Date Brightness Start Highest point End Pass type
(mag) Time Alt. Az. Time Alt. Az. Time Alt. Az.
18 Jul 1.6 21:57:03 10° W 22:00:05 42° S 22:01:59 19° SE visible
18 Jul 3.9 23:34:14 10° WSW 23:34:18 10° WSW 23:34:18 10° WSW visible
19 Jul 2.4 22:36:18 10° WSW 22:39:00 25° SSW 22:39:01 25° SSW visible
20 Jul 2.0 21:38:31 10° W 21:41:26 33° SSW 21:43:43 14° SE visible
21 Jul 3.0 22:18:04 10° WSW 22:20:14 17° SSW 22:20:45 16° SSW visible
22 Jul 2.6 21:20:04 10° WSW 21:22:43 24° SSW 21:25:21 10° SE visible
23 Jul 3.6 22:00:42 10° SW 22:01:24 10° SSW 22:02:05 10° SSW visible
